Voltar ao catálogo

DELTA 1 R/B

CEP 1

AtivoSSO
NORAD 4794·ROCKET BODY·🇺🇸 United States

Lançado Dec 11, 1970 de Vandenberg Space Force Base

Loading…

Próximas Passagens (próximas 24 horas)

TLE

AtualizadoSource: Space-Track

Época: Sep 14, 2026, 10:09 UTC

1 04794U 70106B   26257.42307267 -.00000044  00000-0 -13811-4 0  9999
2 04794 101.3053 261.3278 0036772 171.4958 356.0821 12.53276070942595

Acompanhe DELTA 1 R/B em tempo real com AllMySat

Download on the App Store